Theta_e
350 351 351 353 353 354 354 355 359 360 359 348 347 346 346 357 361 360 361 362 363 356 356 353 351 352 358 357 355 356 354 358 360 356 352 355 352 353 355 351 353 353 355 355 354 354 353 353 355 358 355 354 354 354 354 354 355 354 353 353 348 341 341 344 347 349 348 349 349 350 350 351 350 351 351 351 352 352 352 351 352 351 351 351 352 352 351 350 350 350 350 351 351 351 352 351 350
352 354 354 354 353 356 358 358 361 355 349 343 343 348 350 356 362 361 363 363 362 354 354 350 350 352 353 353 350 354 353 353 356 355 352 352 352 353 354 352 354 354 354 355 355 354 354 354 355 357 356 353 352 354 355 354 356 354 354 351 344 339 342 345 348 349 349 349 349 350 349 350 351 351 351 351 352 352 352 351 351 351 351 351 352 352 352 351 351 350 350 351 351 351 351 350 350
354 355 355 356 355 356 360 360 361 349 342 338 338 352 358 355 363 362 361 360 357 351 353 351 351 351 349 353 353 355 354 352 351 349 351 352 353 353 354 355 355 355 354 354 355 356 356 355 355 357 356 355 353 355 355 355 355 353 354 349 341 339 343 346 349 349 349 349 348 349 349 349 350 351 351 352 352 353 352 351 351 350 350 351 352 352 352 352 352 351 350 351 351 351 350 350 349
355 356 356 358 358 358 361 363 364 349 340 337 334 352 360 353 360 359 358 355 352 352 352 352 353 353 351 355 355 355 353 352 351 350 352 354 354 353 353 355 354 353 353 354 356 357 357 355 354 355 355 355 356 356 356 356 355 353 354 347 339 339 344 348 349 349 348 348 348 349 349 348 349 351 351 352 353 352 351 351 351 351 351 352 353 352 352 352 351 351 351 350 350 350 350 349 349
356 358 357 358 361 361 363 364 365 347 344 347 336 349 358 353 358 354 356 353 352 353 351 353 354 353 352 354 354 355 353 350 352 351 352 353 355 353 353 354 354 352 351 353 356 358 357 353 352 354 354 355 356 357 356 355 354 355 352 344 338 340 345 349 349 347 347 347 348 348 348 347 348 350 351 351 351 351 350 351 351 351 353 353 353 352 352 352 352 351 351 349 349 351 350 349 348
357 358 357 358 361 361 361 354 350 341 350 361 343 351 357 351 357 354 356 353 353 353 352 355 353 353 354 353 352 352 352 350 351 351 352 352 354 354 353 353 354 353 353 352 355 359 355 352 352 353 355 356 357 357 355 355 355 354 348 341 337 341 348 350 348 346 346 347 347 347 346 345 346 348 349 349 349 350 351 351 352 352 353 353 353 352 352 352 351 351 350 349 349 351 351 350 349
357 358 359 360 361 362 361 348 343 343 345 355 349 353 354 352 355 354 356 355 355 353 353 355 351 356 356 353 352 352 351 351 350 352 353 353 353 354 353 354 353 353 353 352 353 356 354 352 353 354 357 357 357 356 354 355 353 349 342 337 337 343 348 348 347 345 346 346 345 344 344 344 345 346 347 347 347 348 350 351 351 352 352 352 352 352 352 352 351 351 350 348 348 350 351 351 351
357 358 358 362 364 362 359 348 347 349 344 351 352 352 352 354 354 353 357 355 356 354 353 353 350 357 357 354 353 353 351 352 352 353 353 352 353 353 353 353 354 354 353 353 354 354 353 353 354 356 357 357 357 355 352 351 348 342 338 337 340 345 346 345 345 345 345 345 344 343 343 344 343 343 343 345 346 347 348 350 351 352 352 352 352 351 351 351 352 351 350 349 347 349 351 351 351
357 357 357 361 361 358 357 350 345 346 349 351 348 352 353 353 352 353 354 353 355 353 354 353 352 359 358 356 354 352 352 353 352 352 352 352 353 352 353 352 353 355 355 356 356 354 354 354 355 356 357 356 356 352 347 343 340 338 336 339 344 345 344 344 345 345 346 345 345 343 343 343 342 340 340 342 345 346 347 349 351 352 352 352 351 351 350 351 351 350 350 350 347 347 350 352 351
357 356 358 361 356 351 349 343 340 345 349 349 348 351 352 351 352 352 352 353 354 353 353 352 352 356 357 357 356 352 352 353 352 352 351 351 352 351 352 351 351 354 354 356 355 354 355 354 355 356 356 355 354 348 342 338 337 336 336 341 344 343 342 344 345 345 346 346 346 344 343 342 341 339 340 343 346 348 347 348 350 351 352 351 350 350 350 351 351 350 349 350 349 348 350 352 352
358 355 356 357 347 340 336 329 337 346 347 348 349 349 350 351 351 351 351 352 353 353 352 352 353 354 357 358 355 353 353 353 352 351 351 351 351 351 352 352 351 352 353 353 354 355 355 354 356 356 355 355 352 347 342 338 335 335 338 341 342 341 342 344 345 346 347 347 346 345 344 342 341 339 341 346 349 349 348 348 349 350 351 351 350 349 350 351 351 351 350 349 349 349 350 350 350
358 357 359 355 346 342 334 328 337 343 349 348 348 350 350 350 351 350 350 352 352 352 352 354 354 352 357 358 354 353 353 352 352 351 350 351 352 352 351 352 352 353 352 351 353 354 355 355 355 355 355 353 350 348 344 338 336 336 338 340 341 341 342 344 345 346 347 347 347 346 345 343 341 338 341 349 352 351 349 348 348 349 349 349 350 349 349 350 351 352 352 351 350 350 350 350 349
356 359 359 353 353 352 337 332 339 341 347 347 349 349 350 351 351 350 349 351 352 352 352 353 351 351 356 356 354 351 351 352 353 351 350 350 351 352 352 352 352 354 353 352 353 354 355 355 355 355 353 351 349 348 345 339 337 336 338 340 340 341 342 344 345 346 347 347 347 346 344 343 342 340 340 345 349 350 348 347 348 348 348 349 351 350 350 351 351 352 352 351 351 349 349 349 348
353 356 356 353 356 356 341 334 337 336 339 345 349 346 350 351 349 349 349 351 352 352 350 350 349 352 355 354 353 350 350 352 352 351 350 350 351 352 352 351 352 354 354 353 354 355 355 354 355 355 352 351 349 347 344 340 339 338 339 340 340 341 342 344 345 345 345 346 346 344 344 343 342 343 341 342 345 348 348 347 346 346 346 348 351 353 352 352 352 352 350 350 349 349 348 348 347
352 352 354 355 352 351 345 339 338 333 335 345 345 346 350 348 349 350 350 352 352 349 349 350 350 354 354 354 354 350 350 351 351 351 350 351 351 352 352 351 352 354 354 354 355 355 355 354 354 354 353 354 352 351 348 342 340 340 340 340 340 340 343 344 345 345 344 344 344 343 343 342 341 342 343 343 343 347 351 349 345 344 344 345 349 352 352 352 352 350 348 348 348 348 348 348 347
351 351 356 354 346 344 343 341 340 335 337 345 344 346 348 346 349 349 350 351 348 348 348 350 350 351 350 350 351 349 350 350 349 351 351 351 352 352 352 352 352 354 355 355 355 355 355 354 353 353 354 354 352 353 352 348 342 342 342 341 341 340 342 344 344 345 342 341 343 342 342 344 346 345 347 349 345 346 351 350 347 346 345 344 346 349 350 350 350 349 347 346 347 347 347 347 347
349 352 355 347 344 345 344 344 342 338 342 345 344 346 347 347 347 345 348 348 347 349 348 348 349 348 348 349 350 350 350 349 349 350 351 352 353 354 353 353 353 353 356 356 355 356 356 355 354 353 354 353 352 352 354 352 343 342 344 341 341 340 342 344 343 342 340 342 342 340 344 352 354 352 353 354 350 348 346 347 349 349 348 346 346 347 348 348 348 347 347 346 348 349 349 347 346
350 355 352 343 350 352 348 349 344 343 347 344 344 348 347 347 348 345 346 348 348 349 349 347 348 349 350 351 351 351 350 350 350 350 350 353 354 354 353 354 354 354 356 357 357 356 357 357 355 352 353 353 352 352 354 353 345 345 348 345 344 343 342 343 344 345 347 349 345 344 350 354 355 354 355 355 354 352 346 344 348 349 349 348 348 349 347 346 346 346 348 348 351 353 352 351 349
349 355 351 345 355 357 353 351 347 345 345 344 345 347 348 348 347 346 346 349 348 349 350 348 350 351 350 351 351 352 350 351 350 350 350 352 354 354 354 354 354 354 356 358 358 357 357 358 356 353 354 353 353 353 353 353 349 350 353 350 349 349 346 345 349 352 353 354 351 350 352 352 353 355 356 354 353 353 347 344 347 348 348 348 349 350 348 347 347 347 348 349 351 352 351 352 352
348 351 351 352 357 357 352 347 348 346 344 345 345 345 347 348 346 346 347 348 348 350 350 350 352 351 349 349 351 352 351 351 350 350 351 350 352 353 354 354 354 354 354 356 357 357 356 357 356 353 354 353 353 353 352 352 350 350 352 351 351 352 350 350 353 354 355 356 355 353 353 352 353 355 353 349 350 352 347 345 348 348 349 349 351 353 352 350 351 352 351 350 351 351 351 352 352
348 349 351 358 359 350 347 348 348 347 344 346 345 345 347 348 347 346 346 348 347 348 348 350 352 350 350 348 350 352 352 352 350 350 351 350 350 351 353 353 354 353 353 355 356 357 356 357 358 355 354 354 353 352 351 351 351 349 351 351 350 351 352 351 353 355 356 358 356 354 353 353 353 354 351 347 351 354 352 351 351 351 351 352 352 354 354 352 354 354 352 353 353 351 351 351 351
348 349 349 357 357 350 350 349 348 348 346 347 345 346 347 347 348 346 348 349 347 346 346 349 351 349 349 349 350 351 350 350 351 351 351 351 350 350 351 350 352 353 353 354 355 357 356 357 358 357 355 354 353 352 351 352 351 349 350 352 350 350 351 351 353 355 357 358 357 353 353 353 353 354 352 351 354 353 354 353 352 353 353 352 351 352 352 352 352 351 352 353 352 351 351 351 351
345 347 348 349 351 352 350 347 349 349 346 347 346 346 347 346 347 347 348 348 345 344 346 348 350 350 350 350 349 349 349 348 350 352 351 350 349 349 350 349 350 352 353 354 354 355 355 356 356 357 358 355 354 352 352 353 352 349 349 352 352 351 352 352 354 355 357 358 356 354 353 352 352 353 352 352 354 353 354 353 352 353 352 351 351 351 351 351 351 352 353 352 351 351 351 352 352
344 345 347 347 349 351 350 350 350 348 346 347 344 343 345 345 347 347 347 347 343 342 346 348 349 351 351 350 349 348 349 349 350 352 350 350 349 349 349 349 349 350 353 355 355 354 354 355 355 356 357 356 355 354 353 353 353 351 350 352 352 353 353 353 355 355 356 357 355 355 354 352 351 352 352 351 352 353 353 352 352 352 351 350 350 351 352 351 351 352 352 352 352 351 351 352 352
344 343 344 347 350 349 350 351 349 347 347 346 344 344 343 343 345 345 346 346 343 342 345 348 350 351 350 349 349 349 349 350 350 351 351 351 350 349 349 349 350 350 352 355 355 355 354 354 355 354 355 355 355 354 353 353 352 352 352 353 353 354 354 354 355 355 356 355 355 355 354 353 352 352 352 351 352 354 354 353 352 352 352 351 350 351 352 352 351 352 352 352 352 351 350 350 350
343 343 342 343 348 349 349 349 348 348 346 346 346 345 343 342 343 343 346 346 345 344 345 347 349 349 349 349 349 350 350 350 350 351 351 351 350 350 350 349 349 349 350 353 355 355 355 353 353 353 353 355 354 354 353 352 352 352 355 354 353 354 354 354 355 355 355 354 355 355 354 354 353 352 352 352 353 355 355 354 353 352 352 351 351 352 352 353 353 352 353 353 354 353 349 349 350
343 344 341 342 344 347 348 348 348 346 346 346 345 345 343 341 342 343 344 346 346 346 347 347 349 349 348 349 349 350 350 349 351 350 350 352 352 351 351 351 349 350 349 351 353 354 355 353 352 353 353 355 354 354 354 353 353 353 356 356 353 353 353 354 356 354 355 354 354 356 355 355 356 353 353 354 355 356 356 355 355 353 353 352 352 353 352 353 353 354 355 354 355 355 351 350 351
343 343 343 344 343 344 346 348 347 346 346 344 345 346 343 340 341 344 343 344 346 347 350 350 350 350 348 350 350 351 351 351 352 350 351 353 352 351 351 352 350 351 350 350 352 352 355 354 353 354 355 355 354 355 356 355 354 353 355 356 354 353 352 354 354 353 354 354 356 357 356 356 356 357 358 357 356 356 355 355 356 355 354 353 354 354 354 355 354 355 356 356 356 356 354 352 351
342 342 344 344 344 344 343 346 346 346 345 343 344 339 340 342 340 343 344 343 346 347 350 351 351 352 350 350 350 352 352 352 352 351 353 352 352 353 351 353 351 351 352 350 350 351 354 355 355 356 355 356 357 356 356 355 355 354 354 355 355 354 354 354 353 353 354 354 356 357 357 356 356 358 360 358 357 357 356 356 356 356 355 354 356 357 357 356 355 355 356 356 356 355 355 354 351
342 342 342 342 339 339 341 343 343 344 343 342 340 328 331 342 339 341 343 344 345 346 351 350 350 351 350 351 351 352 353 352 353 351 352 353 352 353 352 353 352 352 353 352 351 350 352 354 354 356 355 357 358 356 355 355 355 355 355 354 355 356 355 354 353 353 354 354 357 357 357 357 356 358 359 358 357 357 357 357 356 355 356 356 357 358 357 356 355 355 354 354 354 354 355 354 350
343 340 339 339 328 329 340 340 339 343 339 340 339 324 327 340 340 340 341 344 345 345 350 349 349 351 349 351 352 352 353 352 353 352 352 353 352 353 353 353 353 353 353 352 352 350 350 351 352 355 355 356 357 356 355 355 355 354 355 354 354 356 355 354 353 353 353 354 355 357 357 357 356 357 358 358 357 357 357 356 356 355 357 356 357 358 356 355 355 354 354 353 354 354 354 354 351
341 332 327 332 325 327 340 339 338 341 337 340 338 325 330 340 340 341 342 344 345 346 348 348 348 352 350 352 352 351 352 353 354 353 352 353 353 353 353 353 353 352 353 352 352 352 351 350 352 353 354 356 357 356 356 356 355 355 354 354 353 355 355 354 353 351 352 353 353 355 357 358 357 356 358 358 357 357 356 356 355 357 359 357 358 360 357 355 355 355 355 354 354 355 354 354 352
335 330 319 324 324 324 334 336 339 340 338 340 337 330 334 340 342 342 342 344 345 345 346 348 349 350 352 352 351 351 352 353 353 353 353 353 354 353 352 353 353 352 353 353 353 353 352 351 352 353 353 356 357 356 356 356 355 355 354 354 353 354 354 353 352 350 350 351 351 353 356 358 357 357 357 357 357 357 356 356 355 357 360 358 360 361 357 355 355 355 357 356 355 355 355 353 350
324 328 322 323 326 323 325 333 338 337 338 339 339 337 337 339 342 341 342 344 344 344 344 346 348 349 354 353 351 352 352 353 353 353 354 354 354 354 353 353 352 352 353 354 354 354 353 352 353 352 353 354 356 357 356 356 355 355 354 354 354 354 353 351 351 351 350 350 350 351 356 357 357 357 357 356 357 355 356 356 355 358 359 360 361 360 356 355 354 355 358 358 356 355 355 353 349
319 320 320 320 325 324 324 330 336 337 338 339 338 338 339 339 339 340 342 343 343 345 342 345 348 349 353 355 352 352 352 353 354 354 354 354 354 353 353 353 353 352 353 353 354 354 354 354 354 353 352 353 355 355 355 355 355 355 354 353 353 353 352 351 350 351 350 350 350 351 356 358 357 358 357 357 356 355 354 355 357 360 360 360 362 359 356 356 356 357 356 358 360 357 355 354 348
325 324 323 320 320 323 330 334 336 337 337 339 338 336 339 339 339 339 340 341 343 344 342 343 346 348 353 355 353 352 352 352 354 355 354 354 354 354 353 353 353 352 353 354 354 355 355 355 355 354 353 353 353 354 354 353 354 354 354 353 353 353 353 352 351 351 351 351 350 351 355 358 358 358 357 357 356 355 354 354 358 361 360 360 361 359 356 356 358 360 358 359 362 360 357 354 349
329 329 325 324 321 321 333 337 336 338 334 335 340 338 339 339 339 339 338 340 343 343 342 342 344 348 352 354 353 353 352 352 354 355 354 354 354 355 354 353 354 353 353 355 355 357 356 355 357 356 354 355 354 353 353 353 353 354 354 353 352 353 353 353 354 353 352 351 349 351 355 357 358 358 358 357 357 357 355 355 359 363 361 359 361 361 358 358 361 362 361 362 362 359 356 352 348
328 327 323 322 322 323 333 337 335 338 334 332 339 338 338 339 338 338 337 338 341 342 342 341 341 346 350 352 353 353 353 352 353 353 354 355 354 355 355 354 355 354 354 356 357 358 358 357 358 357 356 356 355 354 353 353 353 353 353 353 352 352 353 353 354 354 353 351 349 352 355 357 358 358 358 357 357 357 356 358 362 365 362 359 361 362 360 361 362 362 361 361 360 357 353 349 348
327 326 321 317 322 326 329 335 336 336 333 332 338 336 336 339 338 337 338 337 340 341 341 341 341 344 349 352 353 354 354 353 353 352 353 354 355 355 356 355 355 355 356 357 358 360 360 358 358 359 358 357 357 355 355 354 353 353 353 353 353 352 353 353 354 354 354 351 350 353 356 357 358 358 358 358 357 357 360 362 363 364 363 361 362 363 363 362 363 363 361 359 357 353 350 348 348
327 325 318 315 322 322 319 326 335 337 334 334 337 335 335 339 338 338 338 337 337 339 341 341 340 342 348 351 354 354 353 354 354 352 352 353 355 356 356 356 356 355 356 357 359 361 361 360 360 360 359 358 358 357 356 355 354 354 354 354 354 352 352 354 355 355 355 352 350 355 358 359 358 358 358 357 356 358 364 366 363 362 363 363 363 365 365 362 361 361 361 360 355 351 349 349 347
325 326 320 318 322 323 320 327 334 333 332 336 334 326 327 336 338 338 338 338 337 337 339 342 340 340 345 350 353 352 350 353 354 352 352 353 355 357 356 357 356 356 357 358 359 361 361 361 361 361 361 359 359 359 357 357 356 356 356 356 355 354 353 354 356 355 355 354 351 354 359 360 359 358 357 357 356 358 365 366 363 363 364 364 365 364 364 362 360 358 360 361 355 350 347 346 346
319 324 325 323 325 326 326 330 329 321 321 331 331 317 318 332 336 337 337 337 337 336 338 342 342 340 343 349 350 349 350 352 353 352 352 354 354 357 358 358 358 357 358 358 358 360 361 362 362 362 361 361 360 360 359 359 358 358 358 357 357 357 355 355 357 356 354 355 353 352 357 358 358 356 355 357 357 358 364 365 364 364 364 366 366 363 362 362 360 359 360 359 354 351 349 345 345
314 321 326 326 327 325 324 327 321 313 315 330 333 319 315 324 330 337 338 337 338 338 338 341 343 342 343 348 350 350 349 350 352 350 351 354 355 357 359 359 359 357 358 359 359 360 361 362 362 362 362 362 361 360 360 359 359 359 359 358 358 358 358 357 358 357 354 355 354 351 354 357 358 357 354 357 358 358 363 364 365 364 362 365 366 364 363 361 359 360 359 356 353 352 351 346 343
315 323 326 325 325 323 324 323 318 316 320 327 331 324 316 315 325 338 338 336 339 338 339 342 343 343 344 347 350 351 350 350 350 349 353 356 356 357 359 360 360 358 358 360 360 360 361 362 362 362 362 362 361 361 361 360 360 360 359 359 359 358 358 358 359 359 357 356 355 352 351 354 358 358 355 356 359 359 361 363 364 364 362 362 364 365 364 360 359 360 358 355 354 354 351 346 345
321 325 325 324 324 323 323 321 317 319 318 314 320 323 316 313 323 338 340 335 336 338 341 343 343 344 345 345 349 350 352 353 349 348 354 358 357 359 360 361 360 358 358 359 360 360 361 363 364 363 363 362 362 362 362 361 361 360 360 360 360 359 358 358 358 359 359 357 356 355 352 353 358 360 358 357 359 360 361 361 363 363 362 360 360 362 362 361 361 360 357 356 356 355 351 347 346
325 325 325 324 325 324 324 321 316 315 314 310 314 318 314 312 318 329 333 330 333 339 341 343 344 346 345 344 347 350 352 354 352 352 357 358 359 360 359 362 361 358 359 359 359 360 362 364 365 365 365 363 363 363 363 362 361 360 360 361 361 360 357 357 356 358 360 359 358 357 356 355 358 360 360 358 359 361 361 361 361 361 362 360 358 359 359 360 360 359 358 357 356 355 351 348 347
325 324 324 323 324 325 324 321 316 312 311 311 313 315 314 312 316 324 329 330 335 340 340 343 345 346 345 345 345 348 351 354 354 355 358 358 359 360 359 362 361 358 359 360 359 361 363 364 365 366 366 364 364 364 364 363 361 360 362 362 363 360 358 357 357 358 360 361 360 360 359 358 358 359 360 359 359 360 361 361 360 360 360 359 358 359 358 358 359 359 358 357 357 355 351 349 348
325 325 322 318 318 319 317 316 315 311 310 311 314 316 314 310 314 325 333 335 337 338 339 343 344 344 345 345 345 347 351 353 354 356 357 359 360 360 360 361 362 359 359 360 360 360 362 364 366 367 367 366 365 365 365 363 362 361 362 363 363 361 359 358 358 358 360 363 363 362 361 360 360 359 359 359 358 358 360 361 360 358 359 359 358 358 358 357 357 357 357 357 357 356 352 350 349
325 322 317 312 312 313 312 311 312 311 310 312 315 315 312 310 318 328 334 335 336 336 337 340 340 341 343 345 346 346 347 351 353 355 356 359 359 359 360 361 362 361 359 360 361 361 362 365 367 368 368 368 366 366 366 364 363 362 362 364 364 362 361 360 360 358 360 364 364 363 362 361 361 360 358 358 358 358 359 361 361 360 360 359 358 358 359 358 357 356 357 357 357 356 352 350 350
322 318 313 311 311 312 313 311 311 311 310 312 316 315 311 311 320 330 332 332 333 334 335 337 339 340 339 343 347 344 344 349 353 356 356 359 361 359 361 362 363 362 360 360 361 361 363 365 368 369 369 369 368 367 367 366 364 363 362 363 363 364 363 361 360 359 360 363 364 364 362 361 361 361 359 358 357 358 359 361 362 361 361 360 360 360 360 360 359 358 357 357 357 355 352 351 351
323 323 320 314 311 312 312 311 310 311 310 311 314 314 310 310 319 330 331 330 332 332 334 336 338 338 337 341 345 344 342 346 351 356 356 357 361 361 362 363 362 363 361 360 361 361 363 367 368 370 370 370 369 369 367 366 364 363 363 363 363 364 364 362 361 361 360 362 364 364 362 360 359 360 360 359 357 357 359 360 362 363 362 362 362 363 362 361 360 360 358 357 356 354 352 351 351
323 326 321 314 315 315 312 312 311 310 310 310 311 312 314 319 325 331 330 330 331 331 332 335 336 337 337 338 344 343 340 343 348 353 356 357 360 363 363 363 363 364 362 362 362 362 364 367 368 370 371 371 370 369 367 366 364 363 363 364 363 363 364 363 362 363 361 361 362 363 362 360 357 357 359 359 358 359 359 360 362 362 363 363 363 364 363 360 359 361 360 359 357 354 352 350 351
323 320 315 318 325 321 312 311 313 311 310 312 311 311 316 321 325 328 330 330 330 330 331 332 334 337 336 337 343 343 339 342 345 348 355 358 359 362 364 363 363 365 363 363 362 364 365 367 369 371 371 372 370 369 367 365 364 364 364 364 364 363 364 363 363 364 363 361 361 362 363 362 359 357 357 359 360 360 360 360 361 362 362 362 362 364 363 360 359 361 361 360 358 354 352 351 352
322 315 317 323 325 322 317 312 313 313 312 312 310 310 312 312 317 326 331 329 329 330 330 330 332 335 335 334 339 344 343 342 344 348 355 359 358 360 364 363 364 364 365 364 364 364 365 366 369 371 371 372 371 369 367 365 365 365 364 365 365 364 364 363 362 364 364 362 362 363 362 362 361 359 357 357 359 361 362 361 362 362 362 362 362 362 363 361 359 360 360 360 359 355 353 352 352
325 321 324 323 315 314 314 312 312 312 312 312 310 310 311 310 315 324 328 329 329 330 330 330 330 331 333 332 335 343 344 343 343 349 356 358 357 359 363 363 363 364 365 365 365 364 366 367 368 370 371 371 370 368 367 366 365 365 365 365 365 365 364 363 362 363 365 364 362 363 362 361 362 361 359 358 359 362 364 363 363 364 362 362 362 361 362 362 360 361 361 361 360 357 355 353 352
326 326 327 324 316 314 314 313 313 311 311 312 311 310 310 314 322 327 330 332 330 330 331 331 330 331 332 332 333 339 343 342 341 345 353 358 357 358 362 363 362 363 365 365 365 365 365 367 367 369 370 370 369 367 366 367 366 365 365 365 365 365 364 363 363 363 365 365 363 363 363 361 361 362 361 360 360 361 363 364 364 363 361 361 362 362 362 362 361 361 361 361 360 359 356 354 353
321 319 319 319 319 318 317 315 313 311 312 312 312 310 310 319 329 330 332 334 331 330 332 330 330 331 332 334 335 338 342 343 342 343 349 355 357 357 360 362 361 362 364 364 364 365 364 366 367 367 368 369 368 368 367 367 366 365 366 366 365 365 364 363 364 364 365 366 365 364 363 362 361 361 362 362 362 362 363 364 365 363 360 359 361 362 361 362 362 362 361 360 359 359 357 355 354
322 319 318 318 318 315 314 314 313 312 311 311 312 310 311 323 333 331 331 333 331 331 331 330 331 331 333 335 335 339 344 345 344 343 345 351 356 357 358 361 361 360 363 364 363 365 364 364 366 365 366 367 367 367 367 367 367 366 366 366 365 366 366 364 364 365 365 365 366 365 364 363 362 362 363 363 363 364 363 364 365 364 362 359 360 363 362 362 364 363 361 360 359 358 357 356 355
Wind_Speed
17 15 15 14 12 11 7 5 2 2 4 3 2 2 4 7 6 6 9 7 6 7 6 7 9 9 10 8 10 10 9 7 4 3 5 12 22 22 20 25 26 24 24 24 25 24 23 21 20 18 20 21 22 22 22 21 20 20 20 19 20 21 20 20 19 18 17 16 16 16 16 16 16 16 16 15 15 14 14 14 13 13 12 12 12 12 12 12 12 12 11 10 10 10 10 10 10
15 15 15 13 14 10 2 3 2 2 2 3 1 3 4 6 9 8 6 3 4 9 9 9 9 12 16 10 10 11 12 11 9 9 11 22 25 20 24 26 25 24 23 24 25 24 22 21 20 19 20 21 21 21 21 20 20 20 19 19 20 21 20 19 18 17 17 16 16 16 15 15 15 16 16 15 14 14 14 13 13 12 12 12 12 12 11 11 11 11 12 11 10 10 9 9 10
14 14 14 12 11 7 2 2 2 2 1 2 3 6 3 5 12 11 7 6 8 11 10 11 8 9 12 10 10 9 11 12 15 15 14 23 21 20 26 24 24 24 23 24 24 23 21 21 21 19 20 21 21 20 20 19 19 19 18 19 20 20 19 18 17 17 16 16 16 15 15 15 15 15 15 14 14 13 13 13 12 12 12 12 11 11 11 11 11 11 11 11 10 10 9 9 10
13 13 13 9 5 4 3 2 2 2 0 2 3 6 5 9 13 13 11 10 11 11 10 10 8 9 10 11 10 9 12 12 17 16 12 18 19 24 28 25 26 25 25 25 22 21 21 22 22 21 21 21 20 19 19 19 19 18 18 19 20 19 19 18 17 16 16 15 16 15 15 15 15 15 14 13 13 13 13 12 12 12 12 11 11 11 11 11 11 11 11 10 11 10 9 9 9
12 11 12 8 2 1 2 1 3 2 2 4 2 8 9 12 12 12 12 11 11 10 10 9 8 12 11 10 7 7 11 12 16 17 15 20 23 26 27 26 25 23 25 25 22 20 22 23 23 22 21 20 19 18 18 18 18 17 17 19 19 19 18 17 16 16 16 15 16 15 15 15 14 14 13 13 12 12 12 11 11 11 11 11 11 11 11 11 11 11 11 11 11 11 10 9 8
11 10 11 9 3 1 3 2 3 2 3 3 4 9 11 12 12 13 12 11 11 8 9 9 9 12 11 9 8 7 10 12 14 16 19 24 25 25 26 25 23 22 24 24 23 21 24 24 23 23 21 20 18 18 18 17 17 17 18 19 19 18 17 16 16 16 15 15 15 15 15 14 14 13 13 12 11 11 11 11 10 10 10 10 11 11 11 11 11 11 11 11 11 10 10 9 8
11 6 6 7 4 1 4 4 3 3 3 5 6 10 11 11 11 12 12 11 10 8 6 9 11 11 9 8 9 10 13 14 14 17 22 26 26 26 24 23 22 24 24 24 24 24 25 25 24 22 20 19 18 18 17 17 17 18 19 19 19 17 16 16 15 15 14 15 15 14 14 14 13 13 12 11 11 11 10 10 10 10 10 10 11 11 11 11 11 11 11 10 10 10 10 9 9
10 5 4 4 4 3 4 6 3 2 4 8 8 10 10 10 10 10 11 9 9 8 7 11 10 9 10 9 9 10 14 16 17 21 25 26 26 25 23 23 23 23 23 23 25 27 26 25 24 21 20 19 18 17 17 17 17 19 19 18 18 16 16 15 15 14 14 14 14 13 13 13 13 12 11 11 10 10 10 10 10 10 10 10 11 11 11 11 11 11 11 10 10 9 10 9 9
10 6 4 5 5 2 5 6 1 4 6 9 9 9 8 8 8 8 10 8 9 9 11 11 7 8 12 12 11 9 13 18 22 25 26 26 25 23 22 23 23 22 22 23 25 26 25 24 23 20 20 19 18 17 17 18 18 19 19 18 17 15 15 14 14 13 13 13 12 12 12 12 11 11 11 10 10 9 10 9 10 10 10 11 11 11 11 11 11 11 10 10 10 10 9 9 9
7 5 5 4 4 5 6 3 3 6 7 8 10 9 8 8 6 7 9 10 10 9 13 13 9 10 13 13 10 8 15 21 24 25 25 26 24 22 21 21 22 22 23 24 25 25 24 24 22 20 19 19 17 17 18 18 19 19 18 17 16 15 14 13 13 12 12 11 11 11 10 10 10 10 10 10 9 9 10 9 10 10 10 11 11 11 11 11 11 11 10 10 10 10 10 9 8
5 5 4 4 3 5 4 3 5 6 9 8 10 9 7 7 6 8 9 10 9 10 12 10 11 13 12 12 8 10 18 21 24 25 25 25 22 22 21 20 21 22 24 25 24 25 25 23 21 20 19 19 17 17 18 17 19 18 17 16 15 15 14 13 12 12 11 10 10 9 9 9 9 9 9 9 9 9 9 9 9 10 10 11 11 11 10 10 10 11 11 10 10 10 10 9 8
5 4 3 4 5 5 3 4 5 7 8 7 9 8 7 7 6 9 9 10 9 11 9 6 11 13 11 10 7 12 19 20 23 25 25 24 22 22 21 20 21 20 23 25 24 25 25 24 22 20 19 19 18 17 17 17 18 17 16 15 15 14 13 12 11 11 10 9 9 8 8 8 8 8 9 9 8 9 9 9 9 9 10 10 10 10 10 10 10 10 10 10 10 9 9 9 8
5 4 3 4 7 6 2 3 4 5 7 7 8 7 7 6 7 8 8 10 8 10 9 5 11 11 10 10 8 12 17 21 23 24 25 23 22 22 20 21 20 20 22 23 24 24 24 23 22 21 20 19 18 17 17 17 17 16 15 14 14 13 12 11 10 10 9 8 8 7 8 7 7 8 8 8 8 8 8 9 8 8 9 9 9 9 10 10 10 10 10 9 9 9 8 8 8
6 5 4 5 6 6 3 4 4 4 7 8 8 7 6 6 7 8 7 10 7 8 10 8 11 11 12 11 9 10 15 22 24 24 24 22 21 21 21 21 20 20 21 22 23 24 23 22 21 21 21 19 18 17 17 16 16 15 15 13 13 12 12 11 10 9 8 8 7 7 7 6 6 6 7 8 8 8 9 7 7 7 7 8 8 8 9 9 9 9 9 9 9 8 8 8 7
7 6 5 7 4 5 7 1 5 4 8 8 8 6 6 7 7 6 6 8 9 10 10 8 8 8 12 12 10 12 19 25 26 25 24 22 21 21 21 21 21 20 20 21 23 23 22 21 21 21 20 19 18 17 17 16 16 15 14 13 12 12 11 10 9 9 8 8 7 7 7 6 5 5 6 7 7 8 9 7 6 7 7 7 7 8 8 8 8 8 9 9 9 8 8 8 7
6 6 5 6 1 1 10 3 5 4 7 8 7 5 6 9 6 5 7 7 9 8 7 7 4 4 11 13 14 20 26 28 27 25 23 22 21 21 21 20 21 20 19 21 21 21 21 21 21 21 20 19 18 16 16 16 16 15 14 13 12 12 11 10 9 9 8 8 7 7 6 6 5 4 5 5 5 6 7 6 6 6 6 6 6 7 7 8 7 7 8 7 8 8 8 8 7
5 6 5 5 2 2 8 3 3 3 8 8 7 4 6 9 5 6 5 6 10 7 6 8 5 3 10 15 22 28 29 29 28 27 24 22 21 20 20 20 20 19 19 20 20 20 20 20 21 20 20 19 18 17 16 16 16 15 14 13 11 11 11 10 9 9 8 8 7 7 7 6 6 5 5 5 4 4 5 5 6 6 5 6 6 6 6 7 7 7 7 7 7 6 7 8 7
6 5 5 5 2 2 8 2 3 2 6 6 6 4 5 8 6 5 5 7 9 8 8 9 7 8 14 22 29 30 29 29 28 28 26 22 20 20 20 19 20 19 18 19 19 20 19 20 20 20 20 19 18 17 16 16 16 15 13 13 12 11 11 10 10 9 8 8 7 7 6 6 7 5 5 5 5 4 3 4 5 5 5 5 6 6 6 7 7 7 7 7 7 4 4 5 5
7 6 6 3 2 8 10 1 4 4 4 3 7 5 3 6 6 3 5 8 9 8 10 10 10 13 18 25 30 30 29 29 28 28 27 24 21 20 20 19 20 20 19 19 19 20 19 19 19 20 20 20 18 17 16 16 17 15 14 13 12 11 11 11 10 10 9 9 8 8 6 6 7 5 5 5 5 4 3 3 4 4 5 5 6 6 6 6 7 7 6 6 6 4 3 3 5
8 7 6 2 6 11 5 3 5 6 5 2 7 6 3 6 5 3 4 8 8 7 9 10 12 15 18 23 26 29 28 27 28 27 26 24 22 21 20 20 20 21 21 19 20 20 20 19 19 20 20 20 19 17 16 17 17 15 14 14 13 12 12 12 11 11 10 9 9 8 7 6 6 5 5 5 4 4 3 3 4 4 4 4 4 4 4 4 4 5 6 6 4 3 2 2 3
7 8 6 4 10 6 3 3 5 6 6 4 6 5 5 7 6 3 4 7 6 8 9 10 14 17 20 22 24 27 26 26 27 26 26 24 23 22 20 20 19 21 21 20 20 20 21 20 19 20 20 21 19 17 17 17 17 16 15 14 13 13 13 12 12 11 10 9 9 9 6 5 6 5 5 5 4 5 5 4 4 5 4 4 2 2 3 3 2 2 4 3 1 2 2 2 3
6 9 9 7 9 4 4 3 5 5 5 3 4 3 5 7 6 5 4 4 2 5 11 12 15 19 21 23 22 24 24 24 25 25 26 25 24 22 21 21 20 20 21 22 22 21 22 21 20 20 20 21 19 17 17 16 17 16 15 15 14 13 13 13 12 11 11 10 10 9 7 6 6 5 6 6 5 5 5 4 3 4 4 4 2 2 2 2 2 2 3 3 2 2 3 2 2
7 9 10 9 8 2 4 7 2 3 6 2 1 2 4 5 6 6 5 3 4 5 10 14 16 19 21 23 22 22 23 23 23 24 26 26 25 24 23 23 22 21 20 21 23 24 25 23 21 21 21 21 20 18 17 16 17 16 15 15 14 13 13 13 12 11 11 11 10 8 7 7 7 6 6 6 5 4 5 4 4 3 2 3 4 4 2 1 1 1 3 1 3 3 3 2 1
11 10 9 8 7 4 5 9 6 4 6 4 2 1 3 4 4 7 7 5 8 6 8 13 16 19 21 22 22 22 23 23 23 25 25 25 25 24 23 22 22 22 20 20 22 24 25 25 24 23 23 22 20 19 17 16 16 16 15 15 14 13 13 12 12 11 10 11 10 8 8 7 7 7 7 6 5 4 4 4 4 4 3 3 4 4 3 1 1 1 1 1 0 2 2 2 1
14 13 10 7 6 7 10 10 8 8 7 4 5 5 5 5 3 5 8 8 9 6 8 15 16 17 19 20 22 21 21 22 23 25 24 23 24 23 22 22 21 22 22 21 21 22 24 25 25 25 25 23 21 19 17 16 16 16 15 15 14 13 13 12 11 11 10 11 11 9 8 7 7 7 6 6 6 5 4 4 4 4 4 2 2 1 2 1 1 1 1 1 1 1 0 1 1
12 15 12 9 8 9 9 10 10 10 7 6 8 8 6 6 4 5 8 9 11 9 10 16 17 17 17 18 21 21 21 22 22 24 24 23 23 23 22 22 22 22 22 22 21 21 23 24 25 26 25 23 21 20 18 17 16 16 15 14 14 13 13 11 11 11 11 11 11 10 9 7 6 6 6 6 5 5 4 4 4 5 4 2 2 2 1 2 1 1 1 1 3 3 2 1 1
8 12 14 12 11 9 10 11 12 12 9 9 9 8 7 6 6 6 8 11 12 12 12 16 17 16 17 18 19 19 21 22 24 24 23 23 23 23 23 22 22 22 22 23 22 21 22 24 24 24 24 23 21 19 18 17 17 16 15 14 14 14 13 11 11 11 10 10 10 11 10 8 6 5 5 6 6 5 5 5 4 3 3 3 3 2 2 2 1 1 2 1 2 2 1 2 0
8 9 12 14 13 12 13 13 13 12 10 11 11 10 8 8 8 5 9 13 13 12 13 16 16 15 16 18 18 17 17 21 25 24 22 23 23 23 23 23 22 22 23 23 23 22 22 23 24 23 22 22 21 20 18 17 16 16 15 14 13 13 13 12 11 11 10 10 10 11 11 9 8 4 4 6 6 6 7 6 5 3 3 3 2 2 2 1 1 1 1 1 1 1 0 1 0
12 11 11 12 14 14 16 15 15 13 10 10 10 10 10 11 10 6 8 13 13 13 14 14 14 13 14 16 17 16 17 21 23 22 23 24 23 25 24 23 24 23 23 23 22 23 24 23 23 23 23 23 22 20 19 17 16 16 15 14 13 13 13 12 12 11 11 10 10 11 10 10 9 5 4 6 6 6 6 5 5 5 3 3 2 2 2 2 2 2 2 1 1 1 1 1 1
13 13 11 10 12 13 16 15 16 16 12 10 9 8 9 11 12 10 9 12 12 13 14 12 12 12 12 13 14 16 18 19 21 22 25 25 24 26 25 24 25 23 22 23 23 24 25 23 23 23 23 24 22 21 19 17 16 16 15 14 13 13 13 13 12 11 11 11 10 11 11 11 11 8 6 7 7 6 6 6 6 5 4 4 3 3 3 2 2 2 2 2 1 1 1 1 1
12 13 10 10 10 10 15 16 16 16 12 12 12 7 7 10 14 13 11 12 12 12 15 14 13 13 11 12 13 15 18 19 22 25 26 26 25 25 26 25 25 24 23 24 24 24 24 24 24 23 24 24 22 21 19 18 16 16 15 14 14 14 13 13 13 12 12 11 11 12 12 12 12 10 8 8 8 7 7 7 6 4 4 4 3 3 3 2 2 2 2 2 2 1 1 1 0
11 11 11 11 10 9 14 17 18 17 13 15 14 7 6 6 11 12 12 12 11 11 13 14 15 15 13 12 11 12 16 19 24 26 27 27 26 25 26 26 26 25 24 24 25 24 24 24 24 23 24 24 22 21 19 17 16 15 15 14 14 14 13 13 13 13 12 12 12 13 13 12 12 12 10 9 8 8 7 6 6 5 4 3 3 2 2 3 2 2 2 2 3 2 2 1 1
11 11 11 12 12 11 11 14 17 18 14 15 15 10 7 6 8 12 14 13 12 11 11 14 15 15 15 12 10 10 13 17 21 24 27 27 26 26 26 27 27 26 25 25 25 25 25 24 23 23 25 24 22 21 19 17 16 15 15 14 14 14 14 13 13 13 13 13 13 13 14 13 12 12 11 10 9 8 7 6 6 6 4 4 3 3 3 3 3 3 2 2 3 2 2 1 1
10 11 11 13 14 13 10 11 14 17 16 16 17 13 10 9 13 16 15 13 13 10 10 13 13 14 15 13 12 11 12 15 18 21 27 28 26 26 26 27 28 27 26 26 26 26 25 24 24 22 24 25 22 21 20 17 16 15 15 14 14 14 14 14 13 13 13 13 13 13 14 14 13 12 12 11 10 9 8 7 6 5 5 4 4 4 5 4 3 3 2 2 2 2 3 1 1
13 12 11 12 14 14 13 12 12 16 18 17 16 14 13 12 13 14 14 13 12 10 9 10 12 13 15 14 13 12 14 16 17 22 28 29 27 27 26 27 28 27 26 26 27 27 26 24 24 22 23 24 23 22 21 19 18 16 15 15 14 14 14 14 14 14 14 14 14 13 13 14 13 13 12 11 10 10 9 8 6 5 5 5 4 5 5 4 4 4 3 3 2 3 3 1 0
16 15 13 13 13 13 13 11 11 14 16 17 16 14 14 15 14 12 13 13 12 11 10 9 10 12 13 14 13 13 15 15 17 24 28 28 28 27 26 27 27 27 26 26 27 27 26 25 24 23 23 24 23 22 22 21 19 17 16 16 16 16 15 15 14 14 14 14 14 13 13 14 13 13 13 12 11 10 10 8 7 6 6 6 5 6 6 5 5 4 4 4 3 3 2 0 1
17 15 15 15 15 13 12 12 12 12 11 14 17 16 15 15 15 14 13 13 12 12 12 10 10 11 13 15 15 15 14 13 17 24 28 28 28 27 26 26 27 27 26 27 28 28 28 26 25 24 24 24 24 24 24 23 20 19 18 18 17 17 16 15 15 15 15 14 14 14 15 14 14 14 14 13 12 11 11 9 7 7 7 7 6 7 6 4 4 4 4 4 4 4 1 1 2
19 15 13 14 14 13 14 16 16 14 9 11 16 17 18 16 14 15 15 14 14 14 13 12 12 12 14 16 17 15 11 11 16 21 25 28 28 27 27 26 28 29 28 29 29 29 28 27 26 25 25 25 25 25 25 23 22 20 19 19 18 17 17 17 16 16 15 15 15 15 15 15 15 15 14 14 13 12 12 10 8 8 8 8 7 7 6 5 5 6 6 5 4 3 2 2 4
18 14 12 12 12 12 15 17 18 15 9 10 15 15 16 17 16 16 15 14 14 15 15 12 12 12 13 16 16 14 13 14 17 20 23 27 28 29 27 26 28 30 29 29 29 29 29 28 27 26 25 26 26 25 25 23 22 21 19 18 17 17 17 17 16 15 15 15 16 16 16 16 16 16 15 15 14 13 13 11 10 9 9 8 8 7 7 7 8 7 7 6 4 3 3 3 4
15 13 11 12 12 12 12 14 16 15 10 10 14 13 13 15 16 16 15 15 14 15 15 14 12 11 13 16 15 14 16 16 18 19 21 25 27 29 27 26 28 29 29 30 30 30 29 28 28 27 27 26 26 26 25 23 21 21 19 17 17 16 15 16 16 15 15 16 17 17 17 17 17 16 16 16 15 14 13 12 11 10 10 9 9 7 8 8 8 7 6 5 4 4 5 6 4
16 17 14 13 15 15 12 12 15 15 14 13 13 11 11 14 16 15 14 16 16 14 16 15 13 12 12 15 17 17 19 18 18 19 21 23 25 27 28 27 27 29 29 30 31 31 30 30 30 29 28 27 26 26 25 23 21 20 19 17 17 16 14 15 17 16 16 17 18 18 18 18 18 17 16 17 16 15 14 13 12 10 10 10 9 8 8 8 7 7 5 5 5 5 4 5 5
15 19 20 17 17 18 15 15 14 11 11 13 13 11 10 14 18 16 14 15 18 16 16 16 14 13 13 14 17 19 19 18 17 19 21 22 24 27 29 28 28 29 30 31 31 31 30 30 31 29 28 27 26 27 26 24 22 22 21 19 18 17 17 16 17 17 17 18 18 17 18 18 18 18 17 17 16 16 15 14 13 11 10 10 10 9 8 7 7 6 5 5 6 5 3 3 4
11 16 21 22 21 19 17 17 15 10 8 10 14 12 9 11 16 17 16 17 20 17 16 16 14 12 13 13 15 17 18 18 18 20 21 22 23 26 28 30 31 30 30 31 30 31 30 30 32 31 29 28 27 27 28 26 23 23 22 21 20 19 18 17 17 17 16 17 17 17 18 18 18 18 17 17 17 17 15 14 14 13 11 10 10 10 9 8 7 6 6 6 5 5 4 3 4
10 12 17 21 22 22 19 17 14 10 9 10 14 15 11 10 13 16 18 20 21 17 14 15 14 14 14 14 15 16 18 19 19 19 22 23 23 25 29 32 33 31 30 30 30 31 31 31 32 32 30 28 28 27 29 28 25 24 23 22 21 20 19 17 16 17 16 16 16 17 17 17 18 18 18 18 18 17 16 15 14 13 13 12 10 10 9 9 7 6 7 7 6 6 6 5 6
12 12 14 16 18 21 21 17 12 11 10 10 14 15 12 10 10 12 16 19 19 16 15 16 15 15 14 14 15 16 17 19 20 20 22 22 23 28 32 34 33 32 31 31 31 31 31 31 31 32 30 28 28 28 30 29 26 25 24 23 22 20 19 17 17 17 16 16 16 17 17 17 18 18 18 18 18 18 18 16 15 14 14 13 12 11 9 9 8 8 8 8 8 7 6 7 6
13 14 15 13 12 14 16 15 12 12 13 12 15 16 12 9 9 11 14 16 16 14 15 16 16 15 14 14 15 17 16 17 19 21 21 21 25 30 32 32 33 32 31 31 30 30 30 30 30 31 31 29 29 29 30 30 28 26 25 25 24 22 20 18 17 17 17 17 17 17 17 17 17 18 18 18 19 19 18 17 16 15 14 13 13 11 10 9 9 9 10 9 9 8 7 7 8
14 14 13 9 8 8 9 11 11 11 13 15 18 19 15 11 10 11 13 14 15 13 13 15 16 16 16 16 17 17 16 15 17 19 20 21 25 29 29 30 32 32 31 31 30 30 30 31 31 32 31 29 29 30 31 31 30 27 26 25 25 23 21 20 18 18 18 18 18 18 18 17 17 17 17 18 19 19 19 18 17 16 15 14 13 12 11 11 10 10 10 9 10 9 8 8 9
14 13 10 8 7 8 8 8 10 12 12 13 18 20 18 14 10 10 12 15 18 16 15 17 18 18 18 18 18 17 15 15 16 17 18 20 22 25 27 29 31 31 31 32 31 31 31 31 32 32 32 30 30 31 31 31 31 29 26 25 25 24 23 21 21 20 19 19 19 19 18 18 17 17 17 18 19 20 19 19 18 17 16 15 14 14 12 11 11 10 10 10 10 10 9 10 10
14 12 11 10 8 8 9 10 10 12 11 11 15 18 17 15 11 12 14 15 17 17 16 18 21 22 21 20 19 16 15 16 16 16 17 18 19 21 24 27 30 31 32 33 33 32 31 32 33 33 33 32 31 31 32 32 31 30 28 26 25 24 24 23 22 22 21 20 20 20 19 19 18 18 18 18 19 20 20 19 19 18 17 16 15 14 13 12 11 10 10 10 11 11 10 11 12
14 13 11 10 9 9 10 10 10 11 11 12 16 15 14 14 12 15 19 17 16 16 17 18 21 23 22 20 17 15 15 16 15 16 16 17 19 19 21 26 30 32 34 35 35 34 32 32 34 34 34 33 32 32 33 33 32 31 29 27 25 25 25 24 23 22 22 22 21 21 21 20 19 19 20 19 19 19 20 20 20 19 18 17 16 16 14 13 12 11 11 11 11 11 11 12 13
14 13 11 11 9 9 9 9 9 10 9 13 16 13 12 11 8 11 17 19 17 15 15 17 18 19 18 18 17 15 15 16 15 16 17 18 20 20 22 26 30 31 34 35 34 34 33 33 35 36 35 35 34 33 33 33 32 31 30 28 26 25 25 25 24 23 23 23 22 22 21 21 20 20 20 20 20 19 20 20 20 19 19 18 18 17 16 15 13 12 12 12 12 11 12 13 13
13 12 12 12 11 9 7 8 10 9 8 10 12 10 9 8 7 8 10 15 19 17 15 16 16 16 15 17 19 16 15 15 15 15 17 19 20 20 23 27 30 32 34 34 34 35 35 34 35 36 36 37 36 35 34 34 33 31 30 29 28 26 25 24 24 24 24 24 23 22 22 22 21 20 19 20 21 21 20 20 20 20 19 19 19 18 18 16 15 14 13 13 13 12 13 14 14
10 13 13 12 13 11 7 8 9 8 9 8 9 10 8 6 8 9 9 11 16 19 19 17 16 16 16 15 17 17 16 16 16 16 17 19 20 21 24 28 30 31 34 35 36 38 38 36 35 36 36 36 36 36 35 34 33 32 31 31 29 28 27 26 25 25 25 24 24 23 22 22 22 21 20 20 20 21 22 21 21 21 20 20 20 20 19 18 17 17 15 15 15 14 14 15 15
9 12 14 12 12 12 8 7 7 7 8 7 9 12 11 8 7 9 14 14 14 18 21 19 18 18 17 16 16 18 18 17 18 19 19 19 20 21 24 28 31 33 35 36 37 37 37 37 36 37 36 36 37 36 35 34 34 33 32 32 31 30 29 27 26 25 24 24 24 25 24 23 23 23 21 20 20 21 23 23 22 21 21 21 21 21 20 19 19 18 17 17 17 15 15 16 16
14 10 13 12 11 11 9 8 8 9 8 7 10 11 10 9 8 8 13 16 14 15 17 19 20 20 18 18 18 20 20 17 16 18 17 18 20 21 24 29 32 34 34 34 35 35 35 35 36 37 38 38 38 36 35 34 34 33 32 33 33 32 30 29 27 26 25 25 26 26 25 24 23 22 23 22 21 21 22 23 23 22 22 22 22 21 21 20 20 19 18 18 18 18 17 17 17
17 12 12 12 9 10 10 8 7 8 7 7 10 11 9 9 10 9 10 13 15 14 13 15 17 18 17 16 16 18 18 17 16 17 17 18 21 23 27 30 32 33 33 32 33 34 34 34 35 36 37 37 37 36 34 34 35 33 32 33 34 33 31 30 28 27 26 26 27 27 26 26 24 23 23 24 23 23 23 24 24 24 23 23 23 22 22 22 21 20 19 19 19 19 19 19 18
16 13 12 12 10 9 9 10 8 8 7 6 7 8 7 5 7 10 9 11 13 14 13 12 13 14 16 15 15 16 16 15 16 16 16 19 20 22 27 29 29 29 30 31 33 34 35 34 34 35 36 36 37 37 35 35 35 34 33 34 34 34 33 32 30 29 28 27 27 27 27 26 25 24 24 24 25 25 24 24 24 24 24 23 23 23 23 22 22 22 21 20 20 21 21 20 20
17 14 12 13 12 10 10 10 10 9 8 6 6 6 3 4 3 4 7 9 11 12 13 13 13 14 15 15 15 16 16 16 16 16 16 16 17 18 22 25 26 27 30 32 33 34 35 35 35 35 35 36 37 38 37 36 35 35 35 35 35 35 34 33 31 30 30 29 28 28 27 26 25 25 25 25 26 25 25 25 24 24 24 24 24 24 23 23 23 23 23 21 21 22 22 22 21
Wind_Direction
156 165 173 181 181 178 189 205 249 211 227 296 247 241 79 98 106 73 68 90 103 114 136 115 91 87 100 93 95 91 56 59 109 139 103 127 138 140 145 143 143 141 141 142 144 146 144 143 136 131 131 132 131 129 129 128 128 129 127 124 125 124 120 117 112 110 109 105 102 99 96 93 90 88 86 83 81 80 80 80 79 79 79 79 80 80 80 80 79 79 81 83 89 94 93 94 97
170 174 178 180 180 183 219 226 265 267 254 310 111 82 76 92 100 88 79 128 104 110 119 105 92 99 113 100 89 89 67 76 105 96 107 132 131 133 143 143 142 141 141 140 142 145 144 144 138 134 133 135 134 131 130 130 129 129 127 126 127 125 119 116 113 112 109 105 102 98 94 91 89 86 84 81 79 78 77 77 77 77 78 78 79 79 80 80 80 78 78 79 84 91 93 96 100
184 178 179 177 184 195 273 244 257 285 289 336 59 77 106 87 93 109 125 140 116 109 104 103 99 97 113 92 75 86 81 90 107 103 119 135 132 138 143 140 140 140 141 141 141 142 142 144 142 137 135 136 136 133 131 131 130 129 128 128 128 124 119 117 114 113 108 106 102 97 94 90 87 84 82 80 77 77 76 76 77 77 77 76 76 78 80 80 80 79 77 79 84 90 94 95 101
189 181 183 183 200 207 249 242 227 264 56 315 46 83 96 76 88 107 116 115 110 115 112 110 91 73 89 84 80 88 93 101 111 114 129 137 135 140 140 139 142 142 141 141 140 141 143 146 145 140 138 137 135 134 133 132 132 131 129 130 129 124 121 119 117 114 108 105 101 96 92 88 86 84 81 79 76 74 74 75 75 76 75 74 74 75 77 78 79 79 78 79 84 92 95 95 98
194 194 193 192 248 207 238 267 220 239 142 221 76 81 77 80 93 99 105 111 117 125 115 111 94 88 82 75 86 96 102 109 116 122 129 132 135 138 140 141 142 141 140 141 140 139 145 149 147 143 141 138 136 135 136 135 133 130 130 131 129 126 123 121 118 113 108 104 98 94 91 89 87 84 81 78 76 73 72 73 73 74 72 72 72 73 75 77 79 81 81 78 82 90 94 96 97
206 212 210 207 261 1 239 263 232 263 117 171 86 81 78 84 98 103 112 116 119 119 113 113 102 102 93 78 80 81 105 120 124 126 128 131 137 137 139 141 141 140 138 141 142 140 145 148 146 144 142 139 138 137 138 136 133 131 133 133 131 130 126 123 118 112 107 101 96 93 90 88 86 84 82 79 77 74 72 72 72 73 73 73 73 74 75 76 78 80 83 83 83 85 90 95 95
205 212 225 219 256 269 248 279 251 272 66 76 67 84 88 93 104 112 120 121 121 114 110 111 108 107 97 89 83 80 108 126 126 126 130 133 136 138 141 142 140 140 139 141 141 141 144 145 145 144 141 141 139 139 140 136 134 136 135 134 135 133 127 122 117 112 107 101 96 93 90 88 85 83 81 79 78 76 75 73 73 75 75 77 76 76 76 76 77 79 83 85 86 84 86 90 93
214 220 243 252 262 224 259 278 229 213 81 78 69 80 91 103 111 117 120 125 126 120 112 103 108 108 90 86 92 99 112 120 122 125 132 134 137 140 142 142 139 138 137 138 138 141 143 142 145 144 142 141 141 142 140 138 138 138 135 134 135 133 127 122 118 115 108 103 99 95 91 88 84 81 79 78 78 78 79 78 77 78 78 78 78 77 77 77 78 80 83 85 88 87 84 84 90
229 233 250 266 273 276 275 269 154 92 94 93 87 90 95 102 108 110 110 117 122 129 124 105 99 104 99 96 98 108 109 116 124 129 135 136 140 142 142 143 139 136 133 133 135 140 142 143 145 144 144 143 143 145 141 143 142 139 135 133 134 133 129 124 121 117 112 107 102 98 93 89 86 80 77 77 78 79 81 82 82 81 79 79 79 78 77 78 78 78 82 86 89 91 89 84 88
230 227 257 261 276 290 257 221 107 95 97 92 96 104 101 103 106 101 101 110 121 127 120 113 107 104 107 105 101 107 112 123 131 134 139 139 142 143 143 144 140 136 132 132 136 140 142 145 145 144 146 145 146 146 144 147 144 139 136 135 136 136 132 126 123 119 115 111 105 101 96 92 88 80 76 77 79 80 83 84 84 82 80 79 79 78 78 79 80 80 83 88 89 93 93 90 93
241 223 255 274 288 282 252 114 106 103 98 96 100 104 102 104 104 99 97 105 118 120 121 129 118 109 108 103 100 109 118 132 138 139 141 142 145 144 144 143 140 137 134 135 137 140 143 146 146 147 148 146 148 146 146 148 144 141 136 137 138 138 135 129 125 121 119 116 112 107 101 97 89 82 78 78 80 81 83 83 83 81 79 78 78 78 79 80 82 83 84 88 91 93 93 93 96
254 236 239 275 279 271 291 69 89 93 101 108 102 103 100 98 98 98 102 109 118 118 129 156 125 121 117 106 108 121 130 141 143 143 144 145 145 145 144 142 140 137 137 138 138 139 142 146 147 148 149 147 148 146 147 147 145 142 138 140 140 140 137 132 128 125 125 121 119 115 109 102 93 85 81 84 84 83 84 82 81 81 81 79 78 78 81 82 83 85 85 86 89 93 94 93 93
246 250 242 259 263 256 268 80 90 103 106 95 94 99 99 96 92 91 99 109 120 125 123 131 129 128 114 110 125 134 140 145 145 146 147 148 146 146 145 143 142 139 139 140 139 140 141 145 147 149 150 149 149 147 148 148 146 144 143 145 144 143 138 135 133 130 131 128 126 123 117 110 100 89 83 86 87 87 87 86 84 83 86 84 82 81 82 84 84 86 86 87 89 91 94 95 94
242 255 263 266 264 263 260 118 121 129 100 88 101 105 111 101 87 92 106 108 99 108 106 115 130 118 112 124 140 146 147 147 149 150 150 149 147 147 147 145 143 142 142 141 141 142 144 147 148 150 151 150 150 149 149 150 149 148 148 149 150 147 142 140 140 138 139 137 134 131 127 119 107 97 89 86 88 88 80 84 89 85 88 88 87 84 83 85 86 86 86 87 88 88 89 92 94
245 267 267 270 288 302 288 111 98 103 98 98 106 112 119 98 97 105 101 100 86 90 107 127 133 120 137 148 149 152 151 150 152 152 152 150 149 148 148 147 144 145 145 144 144 145 148 150 150 152 152 152 150 148 149 152 151 151 152 153 155 152 149 149 149 149 149 147 142 141 139 127 116 102 94 90 92 91 79 79 88 87 87 87 90 87 84 82 84 82 79 85 86 87 84 84 88
246 274 273 271 307 349 283 280 92 83 98 102 104 125 119 99 111 97 76 96 102 113 137 130 110 126 150 150 146 149 151 152 153 153 153 151 150 149 150 150 146 148 147 147 149 149 151 151 152 153 154 154 152 150 150 153 155 155 156 158 160 157 156 158 160 161 158 156 150 151 149 136 133 110 97 97 91 96 103 100 90 86 85 85 88 85 82 78 78 70 67 77 82 86 84 79 80
246 260 268 264 155 133 283 308 95 81 94 108 122 146 117 107 109 84 93 119 118 130 133 117 103 111 131 135 140 145 149 151 153 155 154 154 154 153 154 153 150 151 151 151 154 153 154 154 155 155 156 157 154 153 151 154 159 158 161 163 165 164 165 169 170 169 166 164 160 161 157 150 159 137 113 121 106 98 117 116 97 92 87 84 84 81 76 68 67 68 68 71 75 82 84 79 76
245 248 255 262 82 174 265 333 73 65 90 109 135 161 122 119 110 102 153 134 126 133 118 115 101 88 107 125 136 143 149 152 156 158 157 160 159 158 158 157 157 155 153 155 158 158 157 156 158 158 158 159 157 155 154 157 161 160 164 167 169 171 174 176 175 175 175 177 175 172 166 168 178 158 134 141 129 116 123 120 104 95 89 85 82 74 65 61 60 67 77 81 81 79 79 90 93
239 249 251 252 131 213 237 85 59 43 50 98 132 166 141 118 115 142 182 133 134 142 129 132 112 103 116 129 138 145 152 155 160 161 161 165 163 162 161 161 163 159 158 160 160 162 161 160 162 162 161 162 160 159 159 161 164 165 167 170 172 175 180 181 182 183 184 188 186 188 190 180 173 158 156 159 140 136 129 109 97 87 93 91 85 73 61 60 56 55 62 70 73 61 64 121 127
227 244 255 255 223 220 209 66 46 38 13 45 118 147 152 126 133 178 174 135 148 152 139 145 130 125 132 138 143 148 156 159 162 164 164 169 167 166 165 164 167 162 162 164 162 164 166 164 165 166 164 164 164 163 165 165 168 171 172 175 176 179 184 186 189 191 190 193 192 200 202 179 168 166 170 167 149 149 132 104 98 93 103 101 90 91 83 63 46 40 46 51 56 52 62 110 120
223 236 237 232 251 250 85 64 41 29 0 34 96 139 158 134 141 174 164 144 158 160 153 154 143 142 145 147 150 153 159 161 166 168 167 171 170 169 169 168 170 165 161 163 165 166 166 167 167 169 168 168 169 168 169 170 171 175 178 181 182 184 187 190 193 193 192 194 197 205 200 177 181 181 171 173 167 155 152 158 134 119 136 139 112 114 119 85 45 16 37 36 39 94 76 86 90
237 248 246 240 258 324 357 326 49 9 331 47 115 151 142 134 152 178 186 161 136 150 151 152 149 149 153 154 155 157 162 164 168 171 171 174 173 171 172 171 172 168 163 164 168 169 169 171 171 169 170 173 173 172 173 172 175 180 183 184 186 188 190 192 193 192 193 194 198 203 194 184 193 185 173 184 183 160 163 179 156 138 147 153 151 125 121 93 63 25 49 13 318 82 81 79 79
236 246 246 252 262 356 325 295 350 330 312 334 78 66 117 148 172 174 204 180 88 100 135 144 148 149 155 156 158 163 166 168 169 173 175 176 176 174 172 174 174 171 169 167 168 171 173 175 174 171 171 175 176 176 175 174 179 184 184 186 189 191 191 192 192 192 190 192 198 202 196 190 194 189 180 185 188 174 171 166 148 145 137 173 180 139 123 87 95 41 60 3 328 39 56 57 96
231 248 239 235 244 198 218 257 265 269 280 294 326 299 180 190 182 158 193 183 108 99 122 132 140 148 158 159 163 167 167 171 173 174 177 178 180 177 173 174 173 172 172 171 169 171 174 175 175 174 174 176 177 177 178 178 182 187 186 187 191 191 192 191 192 190 185 190 196 200 201 198 196 190 182 184 189 182 177 161 148 152 147 183 196 144 139 179 214 244 34 214 3 39 39 37 19
224 245 252 232 225 214 215 234 248 253 261 268 248 241 215 197 217 166 183 175 133 133 135 131 139 153 163 165 167 169 169 173 175 174 177 180 182 179 176 175 175 174 173 173 172 173 175 175 175 176 176 177 179 178 181 183 184 188 187 188 191 189 192 192 189 188 185 189 192 195 201 204 200 191 185 186 184 177 174 175 165 165 161 164 204 177 160 198 235 232 308 283 13 344 55 56 315
221 233 246 242 230 222 225 233 238 245 250 246 236 235 221 193 212 212 187 171 151 158 157 144 150 161 166 172 172 171 173 175 176 176 176 180 183 182 178 176 177 176 175 175 175 175 176 177 177 177 178 178 180 180 182 185 185 188 187 188 190 188 193 192 187 190 189 189 190 191 197 206 208 197 190 185 179 178 176 188 188 171 164 163 197 214 202 243 260 252 288 349 9 341 328 331 252
228 235 244 245 244 233 227 231 234 241 239 238 242 235 226 195 197 206 178 171 163 165 165 152 155 167 170 175 175 173 176 177 177 177 177 179 183 183 180 179 180 177 177 177 177 178 177 177 179 179 178 178 179 182 183 185 186 187 186 188 189 189 194 192 191 194 191 191 188 187 194 201 212 205 187 183 181 185 185 195 207 182 173 191 211 226 225 243 259 301 307 348 4 0 340 315 246
232 238 246 241 241 241 233 234 233 237 235 230 239 243 231 205 211 206 163 168 170 168 165 158 163 170 173 175 176 176 177 179 179 179 179 179 181 184 181 180 181 177 178 180 177 177 178 179 179 179 179 177 179 183 183 185 186 187 186 188 190 190 193 195 196 197 193 192 185 184 192 195 205 212 175 180 185 192 194 191 204 211 201 202 215 240 229 238 258 243 262 298 317 339 8 339 1
236 237 246 243 239 239 232 230 230 231 231 220 228 242 230 212 211 195 166 166 167 173 167 164 170 168 178 180 175 177 178 180 181 182 182 179 181 183 183 182 180 178 178 182 178 175 180 180 179 180 179 179 181 183 184 185 186 186 187 189 191 190 193 199 198 197 195 191 185 184 190 193 198 206 187 187 192 196 197 189 200 209 212 217 216 239 236 222 240 229 221 245 277 310 334 38 311
232 235 242 248 243 238 227 224 224 226 224 212 222 235 221 210 192 180 182 166 166 180 165 164 177 171 185 188 178 179 178 180 183 184 183 181 182 184 183 182 181 179 178 182 181 177 179 180 180 182 181 181 183 185 185 186 186 186 188 190 190 189 193 199 199 198 196 192 191 188 189 192 195 200 197 197 201 201 200 201 211 211 204 217 221 225 238 225 223 245 245 270 303 313 310 7 326
222 232 232 237 242 234 220 215 216 222 213 204 222 236 223 202 175 178 193 169 171 188 167 167 184 175 181 191 189 186 179 182 185 184 185 182 182 184 184 183 182 181 178 181 183 180 179 179 181 182 181 182 184 186 185 186 188 187 189 190 189 191 195 199 200 198 196 194 195 191 190 192 193 198 198 199 205 209 213 208 210 217 199 212 235 220 240 253 243 264 272 293 307 324 325 325 353
217 226 227 224 235 238 220 208 208 217 206 197 215 232 229 190 156 181 193 172 181 195 176 176 182 173 175 185 193 198 185 182 186 185 185 184 183 184 184 183 183 182 179 181 183 181 182 180 180 182 181 183 184 186 185 184 189 189 191 192 190 194 196 200 202 200 198 197 197 192 191 192 192 196 198 200 205 211 219 217 208 212 202 220 244 220 245 262 260 271 281 299 307 322 324 323 1
212 220 231 223 222 232 222 201 202 214 207 198 209 226 227 163 152 201 189 172 192 198 187 185 182 172 171 178 184 205 199 183 185 187 185 185 184 184 184 183 184 183 180 181 182 182 184 182 182 183 181 183 185 184 184 183 187 190 191 193 193 195 199 201 203 203 201 199 199 195 190 191 192 194 198 202 207 214 218 223 216 205 203 227 238 232 247 251 256 258 254 288 308 310 306 337 352
208 213 228 232 227 226 217 197 193 206 212 207 206 219 232 185 176 199 183 176 198 198 196 192 185 171 164 175 182 195 209 193 186 187 185 185 184 184 184 184 184 183 181 181 182 183 184 183 184 186 182 183 184 183 185 184 186 189 190 194 195 197 203 204 203 204 205 201 199 197 189 189 193 195 199 202 209 219 219 224 227 203 195 220 228 235 245 241 248 251 242 265 286 301 308 335 340
211 210 217 230 233 230 218 203 189 197 210 214 210 210 224 215 196 189 176 187 205 201 209 199 188 175 162 174 184 190 206 202 191 186 185 184 183 184 183 183 184 184 183 183 183 183 185 183 184 188 184 182 182 183 186 186 188 190 191 194 196 200 205 206 206 205 206 204 199 195 188 189 194 195 198 202 208 219 222 224 227 213 203 217 229 239 243 234 232 241 247 249 258 284 293 318 3
220 216 219 223 228 233 222 212 200 201 210 214 218 218 216 219 219 207 186 194 210 209 212 207 191 178 167 176 186 195 205 205 195 186 184 183 182 182 181 182 183 184 183 181 181 182 184 183 183 187 185 182 181 181 186 189 189 190 193 196 197 201 205 206 208 207 207 206 201 195 191 193 195 195 198 202 207 215 222 224 219 215 217 220 230 242 243 233 221 227 244 240 242 258 265 176 179
233 225 225 223 226 230 215 212 214 209 215 215 217 225 226 220 220 226 211 195 207 216 211 209 198 177 172 183 191 198 204 208 199 187 183 183 182 180 181 181 181 183 182 181 181 182 184 184 182 185 184 182 181 181 186 190 190 190 194 199 199 200 203 205 207 209 209 205 201 198 196 197 196 195 198 201 207 212 218 223 215 209 216 220 226 239 243 238 221 222 233 230 238 238 214 186 181
238 235 231 228 227 229 216 208 208 204 212 223 220 223 228 225 219 224 217 198 203 215 212 210 207 187 176 185 193 193 196 209 204 189 182 183 182 180 181 180 181 182 182 181 182 182 184 184 183 184 183 183 184 184 186 189 192 193 195 199 201 199 201 205 206 208 209 204 202 200 197 199 199 197 198 200 205 211 214 216 210 204 210 219 223 234 244 239 227 227 226 217 224 229 213 204 179
234 236 238 236 225 227 228 213 205 204 208 228 228 228 230 230 228 226 221 212 207 208 211 214 209 199 183 180 185 185 189 207 204 190 182 181 181 181 181 181 182 182 182 181 182 182 183 185 184 183 184 184 186 186 187 190 192 193 196 199 201 201 199 204 207 207 206 204 202 200 199 200 199 198 198 201 204 208 211 208 205 205 207 215 218 223 234 231 226 227 226 215 205 212 192 180 190
230 232 230 237 227 222 229 218 209 205 205 229 234 233 234 233 235 232 228 232 224 203 205 218 214 207 193 175 173 182 191 205 204 193 185 180 180 181 181 182 183 182 182 182 182 183 184 186 185 183 185 186 187 188 189 190 191 193 197 199 202 206 203 200 206 207 205 206 204 199 200 201 198 199 200 201 205 207 208 204 206 208 205 211 214 215 225 229 228 224 223 213 200 214 191 160 175
226 231 228 231 231 229 230 227 221 208 206 227 238 240 235 230 234 231 224 230 231 209 197 214 221 212 196 173 172 186 195 199 201 198 190 180 179 181 181 182 183 184 184 184 184 183 184 185 185 184 185 187 188 189 189 189 190 191 195 198 202 208 208 201 203 207 204 205 207 200 201 204 199 200 202 202 205 206 206 204 206 207 203 206 209 214 225 229 233 225 216 207 201 226 218 158 149
222 226 230 234 237 237 238 239 235 220 215 220 225 240 239 227 229 229 223 223 227 214 196 206 217 211 200 184 179 186 193 193 195 202 196 183 178 179 180 182 186 187 186 186 185 185 184 184 184 184 185 187 189 189 189 189 189 190 192 195 198 202 206 203 202 206 205 204 208 204 203 206 203 202 204 204 206 207 207 204 205 207 206 206 206 213 222 224 233 229 215 214 203 215 248 180 156
225 218 222 231 240 243 242 241 238 228 230 223 218 231 242 232 231 229 228 229 229 218 196 198 210 207 203 200 189 183 187 188 191 203 201 187 180 178 179 183 187 189 188 186 186 186 185 183 184 185 185 187 189 189 189 189 191 191 193 196 198 200 203 204 202 205 207 205 207 207 204 204 204 205 205 205 206 208 209 206 205 209 211 211 208 210 217 221 229 223 211 216 199 190 201 199 191
229 217 215 220 231 239 241 243 244 239 243 241 230 232 238 237 233 228 226 230 231 215 190 197 208 205 204 205 198 188 188 185 185 201 202 189 183 181 181 184 187 189 187 185 186 186 185 184 183 185 186 187 188 189 189 190 192 192 194 198 201 202 203 203 201 203 207 207 207 209 206 203 203 206 207 205 206 208 210 209 207 210 213 216 214 211 216 220 221 210 206 207 191 184 178 181 205
228 225 225 220 221 229 234 238 244 244 244 244 236 235 241 239 232 232 231 232 228 205 192 206 207 202 206 210 203 193 191 186 183 197 200 190 188 187 184 183 184 186 186 186 187 186 185 184 183 183 185 187 187 188 189 190 193 193 195 200 202 203 205 204 203 203 206 207 207 209 208 203 201 205 207 205 205 207 210 210 209 211 214 218 220 218 216 216 214 206 206 203 186 182 177 177 198
224 225 229 225 222 226 228 232 236 240 242 240 233 231 241 246 232 228 232 234 226 205 202 210 206 201 205 215 213 197 190 190 188 194 196 191 192 191 187 183 183 185 186 186 186 184 183 182 182 183 185 186 186 187 189 191 193 195 198 201 202 203 202 203 204 204 204 205 206 206 206 204 201 203 206 206 206 206 208 210 211 213 215 218 222 223 219 213 213 208 207 206 191 185 183 183 188
214 221 223 217 223 228 230 231 230 237 240 236 233 234 241 247 233 224 226 228 224 213 203 199 201 203 198 206 216 202 189 191 192 192 193 193 193 192 189 185 184 185 184 184 186 185 183 182 182 183 184 185 185 186 189 191 192 195 199 202 203 203 198 199 202 202 202 203 204 203 203 204 204 204 206 206 208 208 208 209 211 213 214 216 219 221 220 215 213 210 207 204 196 192 188 188 190
208 214 209 199 209 214 223 223 219 234 238 229 229 232 240 245 233 227 229 225 223 219 205 193 197 204 198 199 211 204 191 192 193 192 190 191 191 190 190 188 186 185 183 183 186 186 184 183 182 182 184 185 185 186 188 190 192 195 199 203 204 203 198 198 201 202 201 200 202 202 201 204 206 208 207 207 209 210 209 209 211 212 211 212 215 217 218 216 215 210 204 201 196 194 193 192 197
204 207 201 199 201 197 209 210 211 229 235 229 226 223 233 244 238 233 237 230 223 221 213 200 199 206 202 196 203 204 195 193 193 193 190 188 190 190 190 188 186 185 185 184 185 186 185 183 182 182 183 184 184 186 188 189 192 195 198 202 204 203 200 200 201 203 202 201 202 201 200 202 205 209 210 209 210 209 208 208 209 210 209 208 210 212 213 215 215 211 201 199 197 196 197 198 202
198 203 198 197 200 194 204 209 214 229 229 224 224 221 230 242 235 227 232 234 230 223 216 207 205 212 203 187 194 207 202 195 192 191 191 189 189 191 191 189 187 187 187 185 185 185 185 184 183 182 183 184 184 185 187 188 192 195 198 201 203 202 201 202 203 205 204 202 203 203 203 204 205 209 211 212 212 209 207 208 208 208 208 205 205 207 208 208 209 211 205 200 199 198 201 204 205
198 203 201 203 211 208 206 209 214 225 225 215 214 221 232 237 235 226 226 228 228 228 220 209 209 215 201 178 185 206 210 200 191 190 192 191 189 189 191 190 189 189 188 187 186 185 185 185 184 183 182 183 184 185 187 189 192 195 197 199 202 202 202 203 205 207 207 205 205 205 206 207 209 211 211 211 212 209 207 207 207 207 206 203 203 202 202 203 204 208 207 203 204 202 204 209 209
194 199 206 208 214 220 222 223 222 225 232 215 205 217 233 236 241 236 230 224 218 219 221 212 207 211 203 184 180 194 213 204 189 191 195 192 189 187 190 191 191 190 189 188 187 185 186 186 185 184 183 183 184 185 187 189 191 193 195 198 200 202 201 202 204 207 209 208 207 207 208 209 211 213 213 212 210 209 207 207 206 207 206 204 203 201 200 201 202 204 205 203 204 206 207 212 213
185 197 211 208 210 225 236 230 229 231 237 226 206 212 220 227 230 215 216 229 217 209 214 214 205 203 205 196 180 184 207 205 188 192 196 191 189 188 190 192 191 191 191 190 189 186 186 185 184 185 184 184 185 186 187 189 190 191 194 197 199 200 200 201 203 205 208 209 209 209 209 210 211 212 213 212 210 208 206 206 206 206 206 205 204 203 202 201 200 203 205 202 202 206 208 210 213
194 196 204 204 211 226 239 236 225 221 230 231 219 217 210 211 225 208 203 215 218 208 208 211 208 203 204 205 189 182 198 204 191 190 192 188 188 189 190 193 193 193 193 192 190 188 186 184 184 184 185 186 186 187 188 188 188 190 192 195 197 199 200 201 203 205 205 208 209 209 209 210 211 211 212 213 211 208 206 206 206 205 204 205 205 205 205 202 200 202 204 202 202 205 207 210 212
219 207 195 199 210 211 214 230 228 220 223 226 226 228 220 211 217 214 201 202 212 209 202 207 209 204 204 207 195 184 191 200 195 191 190 187 188 190 191 194 195 194 194 194 191 189 189 187 186 186 186 187 188 189 189 188 189 191 192 195 197 198 200 201 203 203 203 206 209 209 209 210 210 209 210 211 210 209 207 205 205 205 204 204 204 204 203 201 200 201 203 202 203 203 205 210 210
219 221 201 202 216 210 204 216 227 228 227 223 223 225 227 224 218 213 196 190 202 204 196 208 210 198 197 203 193 184 190 198 197 193 190 189 190 191 193 194 195 193 192 193 192 192 192 191 189 189 188 189 189 189 189 189 190 192 193 194 196 197 199 200 202 202 203 206 209 209 209 209 209 208 208 209 209 209 209 207 206 205 205 204 203 202 202 200 199 201 202 202 202 201 203 210 210
205 215 206 198 206 212 210 212 216 227 233 228 228 226 217 211 207 205 188 176 192 202 194 203 214 200 190 195 191 182 188 199 199 193 190 193 194 192 193 194 194 193 191 192 193 193 194 193 192 191 190 189 190 190 190 190 192 193 193 193 195 197 198 199 200 201 203 206 208 208 209 209 208 208 208 208 209 209 209 208 208 207 206 205 203 202 202 200 199 200 202 205 204 202 204 208 209
196 206 207 200 198 204 211 210 205 217 235 236 243 248 202 105 108 188 192 178 182 198 197 191 204 209 194 189 191 182 185 198 201 194 190 196 199 194 191 191 192 193 192 193 195 193 194 195 194 193 192 192 192 191 191 191 191 193 194 194 195 197 197 198 199 200 202 205 207 207 208 207 206 207 207 207 208 209 209 208 208 208 207 206 203 202 202 201 201 200 201 205 205 204 204 206 208